Nashville, TN

4:40 AM CST on December 11, 2019 (GMT -0600)
Nashville International

Weather History for KBNA - May, 2019

Change the Weather History Date:

Monday, May 13, 2019

  Actual Average Record
Temperature  
Mean Temperature 58 °F 67 °F  
Max Temperature 66 °F 77 °F 93 °F (1962)
Min Temperature 48 °F 56 °F 39 °F (2013)
Degree Days  
Heating Degree Days 8    
Month to date heating degree days 15  
Since 1 July heating degree days 3208  
Cooling Degree Days 0    
Month to date cooling degree days 52  
Year to date cooling degree days 111  
Growing Degree Days 8 (Base 50)    
Moisture  
Dew Point 45 °F    
Average Humidity 63    
Maximum Humidity 89    
Minimum Humidity 44    
Precipitation  
Precipitation 0.00 in 0.20 in 2.12 in (1967)
Month to date precipitation 1.37 2.47  
Year to date precipitation 29.25 18.27  
Sea Level Pressure  
Sea Level Pressure 29.95 in    
Wind  
Wind Speed 4 mph ()    
Max Wind Speed 16 mph    
Max Gust Speed 24 mph    
Visibility 10.0 miles    
Events      
T = Trace of Precipitation, MM = Missing Value Source: Averaged Metar Reports

Daily Weather History Graph

Daily Weather History Graph

Search for Another Location

Airport or City:

Astronomy

May. 13, 2019 Rise Set
Actual Time 5:42 AM CDT 7:44 PM CDT
Civil Twilight 5:14 AM CDT 8:12 PM CDT
Nautical Twilight 4:39 AM CDT 8:47 PM CDT
Astronomical Twilight 4:02 AM CDT 9:24 PM CDT
Moon 2:08 PM CDT (5/13) 2:46 AM CDT (5/13)
Length of Visible Light 14h 58m
Length of Day
14h 01m
Waxing Gibbous, 69% of the Moon is Illuminated
May 13
Waxing Gibbous
May 18
Full
May 26
Last Quarter
Jun 3
New
Jun 10
First Quarter

Hourly Weather History & Observations

Time (CDT) Temp. Dew Point Humidity Pressure Visibility Wind Dir Wind Speed Gust Speed Precip Events Conditions
12:53 AM 54.0 °F 46.9 °F 77% 29.86 in 10.0 mi NW 4.6 mph - N/A   Clear
1:53 AM 53.1 °F 46.9 °F 80% 29.86 in 10.0 mi NW 3.5 mph - N/A   Partly Cloudy
2:53 AM 52.0 °F 46.9 °F 83% 29.87 in 10.0 mi Calm Calm - N/A   Scattered Clouds
3:53 AM 52.0 °F 48.0 °F 86% 29.88 in 10.0 mi Calm Calm - N/A   Scattered Clouds
4:53 AM 53.1 °F 48.9 °F 86% 29.89 in 10.0 mi Calm Calm - N/A   Overcast
5:53 AM 53.1 °F 48.0 °F 83% 29.91 in 10.0 mi Calm Calm - N/A   Mostly Cloudy
6:53 AM 53.1 °F 46.9 °F 80% 29.94 in 10.0 mi NW 4.6 mph - N/A   Mostly Cloudy
7:53 AM 55.0 °F 46.9 °F 74% 29.96 in 10.0 mi NNW 4.6 mph - N/A   Mostly Cloudy
8:53 AM 59.0 °F 46.0 °F 62% 29.96 in 10.0 mi NW 4.6 mph - N/A   Mostly Cloudy
9:53 AM 60.1 °F 46.0 °F 60% 29.97 in 10.0 mi North 4.6 mph - N/A   Mostly Cloudy
10:53 AM 63.0 °F 45.0 °F 52% 29.96 in 10.0 mi NW 5.8 mph - N/A   Mostly Cloudy
11:53 AM 62.1 °F 43.0 °F 50% 29.96 in 10.0 mi North 10.4 mph - N/A   Mostly Cloudy
12:53 PM 63.0 °F 44.1 °F 50% 29.96 in 10.0 mi NNW 10.4 mph - N/A   Mostly Cloudy
1:53 PM 66.0 °F 45.0 °F 47% 29.96 in 10.0 mi NW 6.9 mph - N/A   Mostly Cloudy
2:53 PM 64.9 °F 43.0 °F 45% 29.96 in 10.0 mi NW 11.5 mph - N/A   Mostly Cloudy
3:53 PM 64.9 °F 44.1 °F 47% 29.96 in 10.0 mi NNW 12.7 mph - N/A   Mostly Cloudy
4:53 PM 66.0 °F 44.1 °F 45% 29.97 in 10.0 mi NNW 9.2 mph - N/A   Mostly Cloudy
5:53 PM 64.0 °F 43.0 °F 46% 29.97 in 10.0 mi NW 11.5 mph - N/A   Mostly Cloudy
6:53 PM 62.1 °F 43.0 °F 50% 29.99 in 10.0 mi North 10.4 mph 20.7 mph N/A   Mostly Cloudy
7:53 PM 59.0 °F 43.0 °F 55% 30.00 in 10.0 mi North 6.9 mph - N/A   Partly Cloudy
8:53 PM 55.9 °F 44.1 °F 64% 30.01 in 10.0 mi North 6.9 mph - N/A   Partly Cloudy
9:53 PM 55.9 °F 44.1 °F 64% 30.03 in 10.0 mi North 5.8 mph - N/A   Clear
10:53 PM 55.0 °F 44.1 °F 67% 30.03 in 10.0 mi NNE 3.5 mph - N/A   Clear
11:53 PM 53.1 °F 43.0 °F 69% 30.03 in 10.0 mi Calm Calm - N/A   Clear